Regional Weather Roundup
Issued by NWS Goodland, KS

Home | Current Version | Previous Version | Text Only | Print | Product List | Glossary On
Versions: 1 2 3 4 5 6 7 8 9 10 11 12 13 14 15 16 17 18 19 20 21 22 23 24 25 26 27 28 29 30 31 32 33 34 35 36 37 38 39 40 41 42 43 44 45 46 47 48 49 50
000
ASUS43 KGLD 172308
RWRGLD

GOODLAND FORECAST AREA HOURLY WEATHER ROUNDUP
NATIONAL WEATHER SERVICE GOODLAND KS
400 PM MST FRI NOV 17 2017

...OFFICIAL OBSERVATIONS...

CITY           SKY/WX    TMP DP  RH WIND       PRES   REMARKS
GOODLAND KS    CLEAR     60  32  34 NE9       29.53R
HILL CITY KS   CLEAR     64  42  44 NE12      29.51R
IMPERIAL NEB   NOT AVBL
MCCOOK NEB     PTCLDY    55  33  43 NE12      29.55R
AKRON CO       CLOUDY    53  30  41 NE18G24   29.59S
BURLINGTON CO  CLOUDY    60  32  34 NE10      29.54S
LIMON CO       CLOUDY    64  26  23 W20G26    29.58R
$$

...UNOFFICIAL OBSERVATIONS...

CITY           SKY/WX    TMP DP  RH WIND       PRES   REMARKS
COLBY KS       CLEAR     59  36  41 N10       29.53S
LENORA KS        N/A     59  32  36 N7          N/A
NORTON KS      CLEAR     55  28  35 N8        29.52
SHARON SPRINGS   N/A     74  34  23 W12G22      N/A
TRENTON NEB      N/A     53  32  45 NE7         N/A
KIT CARSON CO    N/A     71  33  25 MISG        N/A
YUMA CO        FAIR      54  32  43 NE10      29.57F
$$



USA.gov is the U.S. government's official web portal to all federal, state and local government web resources and services.